CW2840 Weather Reports


Display with metric or nautical units.
time (UTC)temp
F
wind
direction
speed
MPH
gust
MPH
rain 1hr
in
rain 24hr
in
rain mn
in
humidity
%
barometer
mb
20260506133134 77 161 0.0 2.0 0.00 0.00 0.00 86 1010.2
20260506132323 76 161 0.0 2.0 0.00 0.00 0.00 87 1010.3
20260506130134 76 161 0.0 2.0 0.00 0.00 0.00 87 1010.1
20260506124632 76 161 1.0 3.0 0.00 0.00 0.00 87 1010.0
20260506123133 76 161 0.0 2.0 0.00 0.00 0.00 87 1009.8
20260506121631 76 161 1.0 2.0 0.00 0.00 0.00 87 1009.7
20260506120132 76 161 0.0 3.0 0.00 0.00 0.00 87 1009.7
20260506115328 76 161 0.0 2.0 0.00 0.00 0.00 87 1009.5
20260506113132 76 161 0.0 2.0 0.00 0.00 0.00 86 1009.4
20260506111630 76 161 0.0 3.0 0.00 0.00 0.00 86 1009.3
20260506110132 76 164 0.0 5.0 0.00 0.00 0.00 86 1008.8
20260506104629 76 162 2.0 3.0 0.00 0.00 0.00 86 1008.7
20260506103130 76 164 2.0 5.0 0.00 0.00 0.00 85 1008.8
20260506101628 76 176 3.0 7.0 0.00 0.00 0.00 84 1008.6
20260506100129 76 190 3.0 7.0 0.00 0.00 0.00 84 1008.5
20260506095325 77 210 4.0 9.0 0.00 0.00 0.00 84 1008.4
20260506093130 77 175 4.0 9.0 0.00 0.00 0.00 84 1008.2
20260506091627 77 200 3.0 7.0 0.00 0.00 0.00 84 1008.3
20260506090129 77 206 2.0 5.0 0.00 0.00 0.00 84 1008.3
20260506084627 77 172 3.0 9.0 0.00 0.00 0.00 83 1008.2
20260506083128 77 176 5.0 9.0 0.00 0.00 0.00 83 1008.2
20260506081626 77 169 4.0 9.0 0.00 0.00 0.00 83 1008.5
20260506080127 77 192 3.0 11.0 0.00 0.00 0.00 83 1008.6
20260506073126 77 209 3.0 9.0 0.00 0.00 0.00 83 1009.0
20260506071624 77 106 3.0 7.0 0.00 0.00 0.00 83 1009.0
20260506070126 77 190 2.0 7.0 0.00 0.00 0.00 83 1009.3
20260506061624 77 197 2.0 9.0 0.00 0.00 0.00 83 1009.4
20260506060124 77 173 5.0 11.0 0.00 0.00 0.00 83 1009.3
20260506050123 78 116 5.0 14.0 0.00 0.00 0.00 81 1009.4
20260506044621 78 207 5.0 11.0 0.00 0.00 0.00 81 1009.3
20260506043123 78 168 3.0 9.0 0.00 0.00 0.00 80 1009.3
20260506041621 78 180 4.0 11.0 0.00 0.00 0.00 80 1009.3
20260506040123 78 161 3.0 7.0 0.00 0.00 0.00 80 1009.0
20260506034620 79 166 3.0 5.0 0.00 0.00 0.00 79 1009.0
20260506033809 79 99 3.0 9.0 0.00 0.00 0.00 79 1008.8
20260506031620 79 190 2.0 7.0 0.00 0.00 0.00 78 1008.8
20260506030120 79 164 5.0 11.0 0.00 0.00 0.00 77 1008.7
20260506025314 79 226 5.0 11.0 0.00 0.00 0.00 77 1008.3
20260506023120 79 148 3.0 9.0 0.00 0.00 0.00 76 1008.1
20260506021618 80 195 3.0 9.0 0.00 0.00 0.00 75 1007.9
20260506020119 80 157 3.0 13.0 0.00 0.00 0.00 74 1007.7
20260506014617 80 176 7.0 13.0 0.00 0.00 0.00 74 1007.4
20260506013119 80 179 6.0 11.0 0.00 0.00 0.00 73 1007.3
20260506011617 80 114 4.0 7.0 0.00 0.00 0.00 73 1007.0
20260506010118 81 221 4.0 14.0 0.00 0.00 0.00 72 1006.8
20260506004616 81 166 6.0 13.0 0.00 0.00 0.00 72 1006.8
20260506003118 81 188 7.0 18.0 0.00 0.00 0.00 72 1006.7
20260506001616 81 183 3.0 13.0 0.00 0.00 0.00 72 1006.8
20260506000117 82 204 6.0 16.0 0.00 0.00 0.00 72 1006.6
20260505234615 82 164 6.0 14.0 0.00 0.00 0.00 72 1006.7
20260505233116 83 162 4.0 14.0 0.00 0.00 0.00 70 1006.5
20260505231615 83 196 5.0 13.0 0.00 0.00 0.00 69 1006.6
20260505230117 84 135 4.0 14.0 0.00 0.00 0.00 68 1006.6
20260505225323 84 247 5.0 18.0 0.00 0.00 0.00 68 1006.5
20260505223115 84 188 6.0 20.0 0.00 0.00 0.00 67 1006.5
20260505221613 85 200 2.0 14.0 0.00 0.00 0.00 68 1006.4
20260505220106 85 147 5.0 14.0 0.00 0.00 0.00 67 1006.6
20260505214604 85 209 4.0 13.0 0.00 0.00 0.00 68 1007.0
20260505213103 84 227 5.0 14.0 0.00 0.00 0.00 67 1007.1
20260505211605 84 204 3.0 13.0 0.00 0.00 0.00 68 1007.2
20260505210752 84 128 7.0 14.0 0.00 0.00 0.00 68 1007.4
20260505204605 85 171 5.0 11.0 0.00 0.00 0.00 69 1007.7
20260505203103 85 213 6.0 13.0 0.00 0.00 0.00 67 1007.9
20260505201603 85 138 2.0 20.0 0.00 0.00 0.00 66 1008.0
20260505200103 85 210 10.0 16.0 0.00 0.00 0.00 67 1008.2
20260505194603 85 180 6.0 13.0 0.00 0.00 0.00 68 1008.3
20260505193103 82 188 3.0 14.0 0.00 0.00 0.00 72 1008.6
20260505191603 83 217 5.0 14.0 0.00 0.00 0.00 69 1008.6
20260505190104 83 168 3.0 13.0 0.00 0.00 0.00 71 1008.7
20260505185308 82 178 5.0 13.0 0.00 0.00 0.00 71 1008.9
20260505183103 81 161 3.0 14.0 0.00 0.00 0.00 73 1009.0
20260505181604 81 185 7.0 13.0 0.00 0.00 0.00 72 1009.1
20260505180103 82 178 7.0 16.0 0.00 0.00 0.00 72 1009.1
20260505174604 81 197 6.0 20.0 0.00 0.00 0.00 72 1009.2
20260505173103 80 216 6.0 14.0 0.00 0.00 0.00 75 1009.5
20260505171603 79 203 4.0 14.0 0.00 0.00 0.00 76 1009.6
20260505170104 79 193 5.0 11.0 0.00 0.00 0.00 77 1009.6
20260505164603 79 224 5.0 11.0 0.00 0.00 0.00 76 1009.5
20260505163103 79 196 5.0 9.0 0.00 0.00 0.00 76 1009.8
20260505161603 79 216 3.0 13.0 0.00 0.00 0.00 76 1009.7
20260505160104 78 188 6.0 11.0 0.00 0.00 0.00 77 1009.6
20260505151603 78 165 5.0 11.0 0.00 0.00 0.00 78 1009.4
20260505150104 77 179 8.0 14.0 0.00 0.00 0.00 78 1009.4